This demonstration page uses our WeatherBlox Daily Observations layout. Learn more.

39.92423, -83.80882

Hourly Observations for April 1, 2020

Temp ( °F °C ) Dew Point ( °F °C ) Humidity (%) Winds ( mph kmh ) Pressure ( in mb ) Visibility ( mi km ) Precip ( " mm )
12:06 am 00:06 Cloudy with Light Rain 39 4 39 4 100 100 N 8 13 29.93 1013 8 12.87472 0.001 0.001
12:45 am 00:45 Cloudy 39 4 39 4 100 100 N 8 13 29.93 1013 10 16.0934 0.001 0.001
12:56 am 00:56 Cloudy with Light Rain 39 3.9 39 3.9 100 100 N 8 13 29.91 1013 10 16.0934 0.001 0.001
1:11 am 01:11 Cloudy with Light Rain 39 4 39 4 100 100 NNW 6 9 29.93 1013 10 16.0934 0.001 0.001
1:23 am 01:23 Cloudy with Light Rain 39 4 39 4 100 100 N 7 11 29.93 1013 9 14.48406 0.001 0.001
1:54 am 01:54 Cloudy with Light Rain 39 4 39 4 100 100 N 8 13 29.93 1013 10 16.0934 0.001 0.001
1:56 am 01:56 Cloudy with Light Rain 39 3.9 39 3.9 100 100 N 7 11 29.91 1013 10 16.0934 0.001 0.001
2:56 am 02:56 Cloudy 39 3.9 39 3.9 100 100 NNW 7 11 29.91 1013 10 16.0934 0.001 0.001
3:22 am 03:22 Cloudy 39 4 39 4 100 100 NNW 8 13 29.92 1013 10 16.0934 0 0
3:56 am 03:56 Cloudy 39 3.9 39 3.9 100 100 NNW 7 11 29.9 1013 10 16.0934 0 0
4:56 am 04:56 Cloudy 38 3.3 38 3.3 100 100 N 6 9 29.91 1013 10 16.0934 0.001 0.001
5:56 am 05:56 Cloudy 38 3.3 38 3.3 100 100 NNW 8 13 29.92 1013 10 16.0934 0 0
6:17 am 06:17 Cloudy 37 3 37 3 100 100 NNW 8 13 29.95 1014 10 16.0934 0 0
6:56 am 06:56 Cloudy 39 3.9 39 3.9 100 100 NNW 8 13 29.95 1014 10 16.0934 0 0
7:56 am 07:56 Cloudy 39 3.9 39 3.9 100 100 NNW 12 19 29.97 1015 10 16.0934 0 0
8:56 am 08:56 Cloudy 41 5 40 4.4 96 96 NNW 8 13 29.99 1016 N/A 0 0
9:56 am 09:56 Cloudy 42 5.6 40 4.4 92 92 N 14 22 30 1016 10 16.0934 0.01 0.254
10:36 am 10:36 Cloudy 43 6 41 5 93 93 N 13 20 30.02 1017 10 16.0934 0 0
10:51 am 10:51 Cloudy 43 6 41 5 93 93 N 12 19 30.02 1017 10 16.0934 0 0
10:56 am 10:56 Cloudy 43 6.1 40 4.4 89 89 N 13 20 30.02 1017 10 16.0934 0 0
11:56 am 11:56 Cloudy 47 8.3 41 5 80 80 NNW 15 24 30.02 1017 10 16.0934 0 0
12:11 pm 12:11 Cloudy 46 8 41 5 82 82 NNW 14 22 30.02 1017 10 16.0934 0 0
12:47 pm 12:47 Cloudy 46 8 39 4 76 76 N 8 13 30.02 1017 10 16.0934 0 0
12:56 pm 12:56 Cloudy 47 8.3 41 5 80 80 N 8 13 30.02 1017 10 16.0934 0 0
1:47 pm 13:47 Cloudy 50 10 39 4 67 67 N 10 17 30.01 1016 10 16.0934 0 0
1:56 pm 13:56 Cloudy 49 9.4 40 4.4 71 71 N 13 20 30.01 1016 10 16.0934 0 0
2:56 pm 14:56 Cloudy 49 9.4 36 2.2 61 61 NNW 9 15 30.01 1016 10 16.0934 0 0
3:56 pm 15:56 Cloudy 48 8.9 38 3.3 68 68 NNW 8 13 30.02 1017 10 16.0934 0 0
4:56 pm 16:56 Cloudy 48 8.9 38 3.3 68 68 NNW 10 17 30.03 1017 10 16.0934 0.001 0.001
5:56 pm 17:56 Cloudy 47 8.3 39 3.9 74 74 NNW 13 20 30.04 1017 10 16.0934 0 0
6:56 pm 18:56 Cloudy 46 7.8 39 3.9 77 77 NNW 7 11 30.05 1018 10 16.0934 0 0
7:56 pm 19:56 Cloudy 45 7.2 41 5 86 86 WNW 7 11 30.06 1018 10 16.0934 0.04 1.016
8:56 pm 20:56 Cloudy with Light Rain 45 7.2 39 3.9 80 80 NW 7 11 30.08 1019 10 16.0934 0.01 0.254
9:28 pm 21:28 Cloudy 45 7 43 6 93 93 W 5 7 30.08 1019 10 16.0934 0.001 0.001
9:56 pm 21:56 Cloudy 44 6.7 41 5 89 89 N 7 11 30.09 1019 10 16.0934 0.001 0.001
10:07 pm 22:07 Cloudy with Light Rain 43 6 41 5 93 93 NNE 5 7 30.1 1019 10 16.0934 0.001 0.001
10:56 pm 22:56 Cloudy 42 5.6 40 4.4 92 92 N 5 7 30.1 1019 10 16.0934 0.001 0.001
11:56 pm 23:56 Cloudy 42 5.6 40 4.4 92 92 NNW 3 6 30.11 1020 10 16.0934 0.05 1.27

Powered by AerisWeather